Weather History for EGTE - November, 2012

Change the Weather History Date:

Tuesday, November 20, 2012

  Actual Average Record
Temperature  
Mean Temperature 54 °F -  
Max Temperature 58 °F 48 °F 59 °F (2011)
Min Temperature 49 °F 37 °F 26 °F (2005)
Degree Days  
Heating Degree Days 12    
Growing Degree Days 4 (Base 50)    
Moisture  
Dew Point 53 °F    
Average Humidity 94    
Maximum Humidity 100    
Minimum Humidity 82    
Precipitation  
Precipitation 0.51 in - - ()
Sea Level Pressure  
Sea Level Pressure 29.68 in    
Wind  
Wind Speed 12 mph ()    
Max Wind Speed 24 mph    
Max Gust Speed 36 mph    
Visibility 4.4 miles    
Events Rain    
Averages and records for this station are not official NWS values.
T = Trace of Precipitation, MM = Missing Value Source: Averaged Metar Reports

Daily Weather History Graph

Daily Weather History Graph

Search for Another Location

Airport or City:

Trip Planner

Search our weather history database for the weather conditions in past years. The results will help you decide how hot, cold, wet, or windy it might be!

Date:

Astronomy

Nov. 20, 2012 Rise Set
Actual Time 7:37 AM GMT 4:20 PM GMT
Civil Twilight 7:00 AM GMT 4:57 PM GMT
Nautical Twilight 6:20 AM GMT 5:37 PM GMT
Astronomical Twilight 5:41 AM GMT 6:16 PM GMT
Moon 12:43 PM GMT (11/20) No Moon Set
Length of Visible Light 9h 56m
Length of Day
8h 42m
Waxing Crescent, 49% of the Moon is Illuminated
Nov 20
Waxing Crescent
Nov 20
First Quarter
Nov 28
Full
Dec 6
Last Quarter
Dec 13
New

Hourly Weather History & Observations

Time (GMT) Temp. Dew Point Humidity Pressure Visibility Wind Dir Wind Speed Gust Speed Precip Events Conditions
12:20 AM 55.4 °F 53.6 °F 94% 29.71 in 3.7 mi SSE 6.9 mph - N/A   Scattered Clouds
12:50 AM 55.4 °F 53.6 °F 94% 29.68 in 3.7 mi South 10.4 mph - N/A   Mostly Cloudy
1:20 AM 55.4 °F 53.6 °F 94% 29.68 in 3.1 mi South 12.7 mph - N/A Rain Light Rain
1:50 AM 55.4 °F 53.6 °F 94% 29.68 in 2.5 mi South 16.1 mph - N/A Rain Light Rain
2:20 AM 55.4 °F 53.6 °F 94% 29.65 in 2.5 mi South 18.4 mph - N/A Rain Light Rain
2:50 AM 56 °F 56 °F 99%  in - SSW 13.8 mph - -  
5:50 AM 56 °F 56 °F 98%  in - SSW 13.8 mph - -  
6:20 AM 55.4 °F 55.4 °F 100% 29.62 in 3.7 mi South 18.4 mph - N/A Rain Rain
6:50 AM 55.4 °F 55.4 °F 100% 29.62 in 3.7 mi South 24.2 mph - N/A Rain Light Rain
7:20 AM 55.4 °F 55.4 °F 100% 29.59 in 2.5 mi South 24.2 mph 35.7 mph N/A Rain Rain
7:50 AM 55.4 °F 55.4 °F 100% 29.59 in 2.5 mi South 24.2 mph - N/A Rain Rain
8:20 AM 55.4 °F 55.4 °F 100% 29.62 in 2.5 mi South 21.9 mph - N/A Rain Rain
8:50 AM 56 °F 56 °F 100%  in - SSW 19.6 mph - -  
8:50 AM 57.2 °F 55.4 °F 94% 29.62 in 2.5 mi South 21.9 mph - N/A Rain Rain
9:20 AM 57.2 °F 55.4 °F 94% 29.62 in 3.7 mi South 17.3 mph - N/A Rain Rain
9:50 AM 57.2 °F 55.4 °F 94% 29.62 in 5.0 mi South 20.7 mph - N/A Rain Rain
10:20 AM 57.2 °F 55.4 °F 94% 29.65 in 6.2 mi SSW 20.7 mph - N/A   Mostly Cloudy
10:50 AM 57.2 °F 55.4 °F 94% 29.65 in 1.9 mi South 17.3 mph - N/A Rain Rain
11:20 AM 57.2 °F 55.4 °F 94% 29.65 in 3.7 mi South 18.4 mph - N/A Rain Rain
11:50 AM 57 °F 57 °F 100%  in - SSW 15.0 mph - -  
11:50 AM 57.2 °F 55.4 °F 94% 29.65 in 3.1 mi South 18.4 mph - N/A Rain Rain
12:20 PM 57.2 °F 55.4 °F 94% 29.62 in 1.9 mi South 18.4 mph - N/A Rain Rain
12:50 PM 55.4 °F 55.4 °F 100% 29.65 in 3.7 mi South 19.6 mph - N/A Rain Light Rain
1:20 PM 57.2 °F 55.4 °F 94% 29.62 in 2.2 mi South 15.0 mph - N/A Rain Light Rain
1:50 PM 57.2 °F 55.4 °F 94% 29.65 in 2.5 mi South 13.8 mph - N/A Rain Rain
2:20 PM 57.2 °F 55.4 °F 94% 29.65 in 6.2 mi SSW 16.1 mph - N/A   Mostly Cloudy
2:50 PM 56 °F 54 °F 89%  in - West 11.5 mph - -  
2:50 PM 57.2 °F 53.6 °F 88% 29.65 in 6.2 mi West 13.8 mph - N/A   Mostly Cloudy
3:20 PM 55.4 °F 51.8 °F 88% 29.68 in 6.2 mi West 9.2 mph - N/A   Mostly Cloudy
3:50 PM 55.4 °F 50.0 °F 82% 29.68 in 6.2 mi WSW 8.1 mph - N/A   Scattered Clouds
4:20 PM 55.4 °F 50.0 °F 82% 29.71 in 6.2 mi WSW 8.1 mph - N/A   Scattered Clouds
4:50 PM 53.6 °F 50.0 °F 88% 29.71 in 6.2 mi SW 5.8 mph - N/A   Partly Cloudy
5:20 PM 53.6 °F 48.2 °F 82% 29.71 in 6.2 mi South 2.3 mph - N/A   Partly Cloudy
5:50 PM 52 °F 51 °F 94%  in - SSE 3.5 mph - -  
5:50 PM 53.6 °F 48.2 °F 82% 29.74 in 6.2 mi SE 4.6 mph - N/A   Partly Cloudy
6:20 PM 51.8 °F 50.0 °F 94% 29.74 in 6.2 mi SSE 4.6 mph - N/A Rain Rain
6:50 PM 51.8 °F 50.0 °F 94% 29.74 in 6.2 mi SSE 4.6 mph - N/A Rain Rain
7:20 PM 51.8 °F 50.0 °F 94% 29.74 in 6.2 mi SE 8.1 mph - N/A Rain Rain
7:50 PM 51.8 °F 50.0 °F 94% 29.74 in 5.0 mi SE 6.9 mph - N/A Rain Rain
8:20 PM 51.8 °F 50.0 °F 94% 29.74 in 5.0 mi SE 4.6 mph - N/A Rain Rain
8:50 PM 51 °F 51 °F 100%  in - West 2.3 mph - -  
8:50 PM 51.8 °F 50.0 °F 94% 29.74 in 5.0 mi Variable 2.3 mph - N/A Rain Rain
9:20 PM 51.8 °F 50.0 °F 94% 29.74 in 5.0 mi SE 5.8 mph - N/A Rain Rain
9:50 PM 51.8 °F 50.0 °F 94% 29.74 in 5.0 mi ESE 5.8 mph - N/A Rain Rain
10:20 PM 51.8 °F 50.0 °F 94% 29.71 in 5.0 mi East 4.6 mph - N/A Rain Rain
10:50 PM 51.8 °F 50.0 °F 94% 29.71 in 6.2 mi East 4.6 mph - N/A Rain Light Rain
11:20 PM 50.0 °F 48.2 °F 94% 29.71 in 5.0 mi East 4.6 mph - N/A Rain Light Rain
11:50 PM 49 °F 49 °F 100%  in - East 3.5 mph - -  
11:50 PM 50.0 °F 48.2 °F 94% 29.71 in 5.0 mi ENE 5.8 mph - N/A Rain Rain